Time,TemperatureF,DewpointF,PressureIn,WindDirection,WindDirectionDegrees,WindSpeedMPH,WindSpeedGustMPH,Humidity,HourlyPrecipIn,Conditions,Clouds,dailyrainin,SoftwareType,DateUTC
2013-12-01 00:00:00,21.3,17.2,30.17,ENE,58,0.0,13.0,84,0.00,,,0.00,Wunderground v.1.13,2013-12-01 05:00:00,
2013-12-01 00:30:00,21.4,17.6,30.17,ENE,58,0.0,13.0,85,0.00,,,0.00,Wunderground v.1.13,2013-12-01 05:30:00,
2013-12-01 01:00:00,21.8,18.0,30.16,ENE,58,0.0,13.0,85,0.00,,,0.00,Wunderground v.1.13,2013-12-01 06:00:00,
2013-12-01 01:30:00,21.9,17.8,30.15,ENE,58,0.0,13.0,84,0.00,,,0.00,Wunderground v.1.13,2013-12-01 06:30:00,
2013-12-01 02:00:00,21.8,18.0,30.15,ENE,58,0.0,13.0,85,0.00,,,0.00,Wunderground v.1.13,2013-12-01 07:00:00,
2013-12-01 02:30:00,22.4,18.6,30.15,ENE,58,0.0,13.0,85,0.00,,,0.00,Wunderground v.1.13,2013-12-01 07:30:00,
2013-12-01 03:00:00,22.7,18.9,30.14,ENE,58,0.0,13.0,85,0.00,,,0.00,Wunderground v.1.13,2013-12-01 08:00:00,
2013-12-01 03:30:00,23.3,19.5,30.13,ENE,58,0.0,13.0,85,0.00,,,0.00,Wunderground v.1.13,2013-12-01 08:30:00,
2013-12-01 04:00:00,23.9,20.6,30.11,ENE,58,0.0,13.0,87,0.00,,,0.00,Wunderground v.1.13,2013-12-01 09:00:00,
2013-12-01 04:30:00,24.5,21.5,30.10,ENE,58,0.0,13.0,88,0.00,,,0.00,Wunderground v.1.13,2013-12-01 09:30:00,
2013-12-01 05:00:00,25.4,22.3,30.10,ENE,58,0.0,13.0,88,0.00,,,0.00,Wunderground v.1.13,2013-12-01 10:00:00,
2013-12-01 05:30:00,25.6,22.5,30.09,ENE,58,0.0,13.0,88,0.00,,,0.00,Wunderground v.1.13,2013-12-01 10:30:00,
2013-12-01 06:00:00,25.8,22.7,30.09,ENE,58,0.0,13.0,88,0.00,,,0.00,Wunderground v.1.13,2013-12-01 11:00:00,
2013-12-01 06:30:00,26.3,23.0,30.08,ENE,58,0.0,13.0,87,0.00,,,0.00,Wunderground v.1.13,2013-12-01 11:30:00,
2013-12-01 07:00:00,26.4,23.3,30.08,ENE,58,0.0,13.0,88,0.00,,,0.00,Wunderground v.1.13,2013-12-01 12:00:00,
2013-12-01 07:30:00,25.8,22.7,30.08,ENE,58,0.0,13.0,88,0.00,,,0.00,Wunderground v.1.13,2013-12-01 12:30:00,
2013-12-01 08:00:00,26.1,23.3,30.08,ENE,58,0.0,13.0,89,0.00,,,0.00,Wunderground v.1.13,2013-12-01 13:00:00,
2013-12-01 08:30:00,27.0,23.9,30.08,ENE,58,0.0,13.0,88,0.00,,,0.00,Wunderground v.1.13,2013-12-01 13:30:00,
2013-12-01 09:00:00,27.6,24.5,30.08,ENE,58,0.0,13.0,88,0.00,,,0.00,Wunderground v.1.13,2013-12-01 14:00:00,
2013-12-01 09:30:00,29.0,25.9,30.08,ENE,58,0.0,13.0,88,0.00,,,0.00,Wunderground v.1.13,2013-12-01 14:30:00,
2013-12-01 10:00:00,29.7,26.6,30.08,ENE,58,0.0,13.0,88,0.00,,,0.00,Wunderground v.1.13,2013-12-01 15:00:00,
2013-12-01 10:30:00,30.3,26.9,30.09,ENE,58,0.0,13.0,87,0.00,,,0.00,Wunderground v.1.13,2013-12-01 15:30:00,
2013-12-01 11:00:00,31.6,28.2,30.07,ENE,58,0.0,13.0,87,0.00,,,0.00,Wunderground v.1.13,2013-12-01 16:00:00,
2013-12-01 11:30:00,31.9,27.9,30.06,ENE,58,0.0,13.0,85,0.00,,,0.00,Wunderground v.1.13,2013-12-01 16:30:00,
2013-12-01 12:00:00,32.4,28.1,30.05,ENE,58,1.0,1.0,84,0.00,,,0.00,Wunderground v.1.13,2013-12-01 17:00:00,
2013-12-01 12:30:00,32.5,28.5,30.05,ENE,58,1.0,13.0,85,0.00,,,0.00,Wunderground v.1.13,2013-12-01 17:30:00,
2013-12-01 13:00:00,32.9,28.9,30.04,ENE,58,0.0,13.0,85,0.00,,,0.00,Wunderground v.1.13,2013-12-01 18:00:00,
2013-12-01 13:30:00,32.4,29.2,30.03,ENE,58,1.0,13.0,88,0.00,,,0.00,Wunderground v.1.13,2013-12-01 18:30:00,
2013-12-01 14:00:00,32.2,29.9,30.03,ENE,58,1.0,13.0,91,0.00,,,0.00,Wunderground v.1.13,2013-12-01 19:00:00,
2013-12-01 14:30:00,32.2,30.1,30.03,ENE,58,0.0,13.0,92,0.00,,,0.00,Wunderground v.1.13,2013-12-01 19:30:00,
2013-12-01 15:00:00,32.4,30.6,30.03,ENE,58,0.0,13.0,93,0.00,,,0.00,Wunderground v.1.13,2013-12-01 20:00:00,
2013-12-01 15:30:00,32.5,30.7,30.02,ENE,58,1.0,13.0,93,0.00,,,0.01,Wunderground v.1.13,2013-12-01 20:30:00,
2013-12-01 16:00:00,32.1,30.6,30.02,ENE,58,1.0,1.0,94,0.00,,,0.01,Wunderground v.1.13,2013-12-01 21:00:00,
2013-12-01 16:30:00,31.8,30.3,30.02,ENE,58,0.0,13.0,94,0.00,,,0.01,Wunderground v.1.13,2013-12-01 21:30:00,
2013-12-01 17:00:00,31.6,30.1,30.02,ENE,57,0.0,13.0,94,0.00,,,0.01,Wunderground v.1.13,2013-12-01 22:00:00,
2013-12-01 17:30:00,31.6,30.3,30.01,ENE,57,1.0,1.0,95,0.00,,,0.02,Wunderground v.1.13,2013-12-01 22:30:00,
2013-12-01 18:00:00,31.6,30.3,30.01,ENE,57,1.0,13.0,95,0.00,,,0.02,Wunderground v.1.13,2013-12-01 23:00:00,
2013-12-01 18:30:00,31.9,30.6,30.00,NE,49,1.0,1.0,95,0.00,,,0.02,Wunderground v.1.13,2013-12-01 23:30:00,
2013-12-01 19:00:00,32.1,30.8,30.00,NE,49,1.0,1.0,95,0.00,,,0.02,Wunderground v.1.13,2013-12-02 00:00:00,
2013-12-01 19:30:00,31.8,30.5,30.00,NE,45,2.0,2.0,95,0.00,,,0.02,Wunderground v.1.13,2013-12-02 00:30:00,
2013-12-01 20:00:00,31.6,30.3,30.00,NE,36,1.0,13.0,95,0.00,,,0.02,Wunderground v.1.13,2013-12-02 01:00:00,
2013-12-01 20:30:00,31.2,29.9,30.00,NE,36,2.0,13.0,95,0.00,,,0.02,Wunderground v.1.13,2013-12-02 01:30:00,
2013-12-01 21:00:00,30.3,29.0,29.99,NE,36,2.0,13.0,95,0.00,,,0.02,Wunderground v.1.13,2013-12-02 02:00:00,
2013-12-01 21:30:00,30.0,28.7,29.99,NE,36,1.0,13.0,95,0.00,,,0.02,Wunderground v.1.13,2013-12-02 02:30:00,
2013-12-01 22:00:00,29.8,28.5,29.98,NE,36,1.0,13.0,95,0.00,,,0.02,Wunderground v.1.13,2013-12-02 03:00:00,
2013-12-01 22:30:00,29.8,28.5,29.97,NE,36,0.0,13.0,95,0.00,,,0.02,Wunderground v.1.13,2013-12-02 03:30:00,
2013-12-01 23:00:00,30.0,28.7,29.97,NE,36,0.0,13.0,95,0.00,,,0.02,Wunderground v.1.13,2013-12-02 04:00:00,
2013-12-01 23:30:00,30.1,28.8,29.97,NE,36,1.0,1.0,95,0.00,,,0.02,Wunderground v.1.13,2013-12-02 04:30:00,